{"data":{"norad_id":62150,"epoch":"2026-05-25T04:27:13.878720Z","epoch_age_seconds":53030,"freshness":"FRESH","line1":"1 62150U 24224M   26145.18557730  .00026240  00000+0  95871-3 0  9998","line2":"2 62150  42.9996  85.7006 0001217 268.2282  91.8430 15.27613084 84185","mean_motion":15.27613084,"eccentricity":0.0001217,"inclination_deg":42.9996,"raan_deg":85.7006,"arg_perigee_deg":268.2282,"mean_anomaly_deg":91.843,"bstar":0.00095871,"rev_number":8418,"period_min":94.264707148842,"perigee_km":482.11503813781,"apogee_km":483.78502672151,"semimajor_km":6861.0870324297,"source":"CELESTRAK","updated_at":"2026-05-25T13:38:19.571417Z"}}